Home   Weather   Rankweil   Past weeks

Flag for Austria Past Weather in Rankweil, Vorarlberg, Austria — Yesterday and Last 2 Weeks

Now
79 °F

Pleasantly warm.


Feels Like: 79 °F
Forecast: 53 / 83 °F
Wind: 1 mph from North

Location: Feldkirch

Current Time: May 26, 2017 at 6:54:24 pm

Latest Report: May 26, 2017 at 5:00 pm


Visibility: N/A

Pressure: 29.96 "Hg

Humidity: 33%

Dew Point: 47 °F

Location of RankweilLocation

Past Weather in Rankweil — Graph

°F

Rankweil Temperature Yesterday

Maximum temperature yesterday: 74 °F (at 5:00 pm)
Minimum temperature yesterday: 55 °F (at 6:00 am)
Average temperature yesterday: 65 °F

High & Low Weather Summary for the Past Weeks

 TemperatureHumidityPressure
High79 °F (May 23, 3:00 pm)99% (May 20, 7:00 am)30.42 "Hg (May 20, 7:00 am)
Low41 °F (May 20, 6:00 am)27% (May 17, 6:00 pm)29.41 "Hg (May 11, 7:00 pm)
Average62 °F64%30.07 "Hg
* Reported May 11 5:00 pm — May 26 5:00 pm, Rankweil. Weather by CustomWeather, © 2017

Note: Actual official high and low records may vary slightly from our data, if they occured in-between our weather recording intervals... More about our weather records

Advertising

Rankweil Weather History for the Previous 24 Hours

Scroll right to see more
 ConditionsComfort  
Time TempWeatherWind HumidityBarometerVisibility
5:00 pm
Fri, May 26
79 °FPleasantly warm.1 mph33%29.96 "HgN/A
4:00 pm78 °FPleasantly warm.2 mph35%29.97 "HgN/A
3:00 pm77 °FPleasantly warm.2 mph38%29.99 "HgN/A
2:00 pm76 °FMild.2 mph42%30.01 "HgN/A
12:00 pm72 °FMild.2 mph46%30.05 "HgN/A
11:00 am69 °FSunny.1 mph50%30.07 "Hg19 mi
10:00 am67 °FMild.1 mph54%30.09 "HgN/A
9:00 am62 °FCool.1 mph61%30.11 "HgN/A
8:00 am56 °FCool.No wind72%30.11 "HgN/A
7:00 am52 °FSunny.No wind85%30.13 "Hg19 mi
6:00 am50 °FCool.1 mph88%30.13 "HgN/A
5:00 am51 °FCool.No wind82%30.13 "HgN/A
4:00 am52 °FCool.1 mph80%30.13 "HgN/A
3:00 am53 °FCool.1 mph79%30.13 "HgN/A
2:00 am54 °FCool.1 mph74%30.13 "HgN/A
1:00 am55 °FCool.1 mph74%30.13 "HgN/A
12:00 am57 °FCool.No wind70%30.13 "HgN/A
11:00 pm
Thu, May 25
60 °FCool.1 mph63%30.12 "HgN/A
10:00 pm63 °FMild.1 mph56%30.11 "HgN/A
9:00 pm65 °FMild.1 mph52%30.08 "HgN/A
8:00 pm69 °FMild.2 mph44%30.06 "HgN/A
7:00 pm72 °FMild.1 mph40%30.06 "HgN/A
6:00 pm72 °FMild.2 mph39%30.06 "HgN/A
Weather by CustomWeather, © 2017

See weather overviewHow to use our weather pages